| time (UTC) | temp F | wind direction | speed MPH | gust MPH | rain 1hr in | rain 24hr in | rain mn in | humidity % | barometer mb |
| 20260506184705 | 53 | 268 | 1.0 | 6.0 | 0.00 | 0.39 | 0.09 | 80 | 1008.6 |
| 20260506183704 | 53 | 259 | 1.0 | 4.0 | 0.00 | 0.42 | 0.09 | 80 | 1008.6 |
| 20260506183204 | 53 | 260 | 1.0 | 4.0 | 0.00 | 0.43 | 0.09 | 80 | 1008.6 |
| 20260506182204 | 53 | 286 | 0.0 | 3.0 | 0.00 | 0.44 | 0.09 | 81 | 1008.5 |
| 20260506181204 | 53 | 279 | 0.0 | 6.0 | 0.00 | 0.46 | 0.09 | 81 | 1008.4 |
| 20260506180704 | 53 | 289 | 1.0 | 6.0 | 0.00 | 0.46 | 0.09 | 81 | 1008.3 |
| 20260506180205 | 53 | 276 | 1.0 | 6.0 | 0.00 | 0.47 | 0.09 | 81 | 1008.3 |
| 20260506175704 | 53 | 302 | 1.0 | 7.0 | 0.00 | 0.48 | 0.09 | 82 | 1008.3 |
| 20260506175204 | 53 | 281 | 2.0 | 7.0 | 0.00 | 0.49 | 0.09 | 82 | 1008.2 |
| 20260506174704 | 53 | 234 | 2.0 | 7.0 | 0.00 | 0.49 | 0.09 | 81 | 1008.1 |
| 20260506173704 | 54 | 28 | 1.0 | 6.0 | 0.00 | 0.50 | 0.09 | 82 | 1008.0 |
| 20260506173205 | 54 | 298 | 1.0 | 6.0 | 0.00 | 0.50 | 0.09 | 82 | 1007.9 |
| 20260506172704 | 54 | 290 | 1.0 | 6.0 | 0.00 | 0.50 | 0.09 | 81 | 1007.7 |
| 20260506172204 | 54 | 281 | 1.0 | 7.0 | 0.00 | 0.51 | 0.09 | 81 | 1007.8 |
| 20260506171704 | 54 | 300 | 1.0 | 7.0 | 0.00 | 0.51 | 0.09 | 81 | 1007.7 |
| 20260506170704 | 54 | 349 | 2.0 | 6.0 | 0.00 | 0.51 | 0.09 | 81 | 1007.8 |
| 20260506170204 | 54 | 270 | 2.0 | 6.0 | 0.00 | 0.51 | 0.09 | 81 | 1007.8 |
| 20260506165705 | 54 | 280 | 2.0 | 9.0 | 0.00 | 0.51 | 0.09 | 80 | 1007.8 |
| 20260506165204 | 54 | 24 | 2.0 | 9.0 | 0.00 | 0.51 | 0.09 | 81 | 1007.8 |
| 20260506164704 | 54 | 269 | 2.0 | 9.0 | 0.00 | 0.51 | 0.09 | 81 | 1007.8 |
| 20260506164204 | 54 | 31 | 1.0 | 4.0 | 0.00 | 0.51 | 0.09 | 81 | 1007.7 |
| 20260506163704 | 54 | 322 | 1.0 | 6.0 | 0.00 | 0.51 | 0.09 | 81 | 1007.7 |
| 20260506162704 | 54 | 5 | 1.0 | 7.0 | 0.00 | 0.51 | 0.09 | 81 | 1007.7 |
| 20260506162233 | 54 | 289 | 2.0 | 7.0 | 0.00 | 0.51 | 0.09 | 80 | 1007.7 |
| 20260506161209 | 54 | 295 | 1.0 | 6.0 | 0.00 | 0.51 | 0.09 | 81 | 1007.7 |
| 20260506160228 | 54 | 355 | 2.0 | 9.0 | 0.00 | 0.51 | 0.09 | 81 | 1007.6 |
| 20260506155704 | 54 | 279 | 2.0 | 9.0 | 0.00 | 0.51 | 0.09 | 82 | 1007.6 |
| 20260506154704 | 54 | 271 | 2.0 | 8.0 | 0.00 | 0.51 | 0.09 | 82 | 1007.6 |
| 20260506153704 | 55 | 323 | 2.0 | 6.0 | 0.00 | 0.52 | 0.09 | 81 | 1007.6 |
| 20260506153204 | 55 | 304 | 1.0 | 6.0 | 0.00 | 0.52 | 0.09 | 80 | 1007.5 |
| 20260506152704 | 55 | 241 | 1.0 | 6.0 | 0.00 | 0.52 | 0.09 | 80 | 1007.4 |
| 20260506151704 | 55 | 350 | 1.0 | 9.0 | 0.00 | 0.52 | 0.09 | 82 | 1007.4 |
| 20260506151204 | 55 | 273 | 2.0 | 9.0 | 0.00 | 0.53 | 0.09 | 83 | 1007.2 |
| 20260506145704 | 54 | 316 | 1.0 | 7.0 | 0.00 | 0.54 | 0.09 | 84 | 1007.0 |
| 20260506145205 | 54 | 265 | 1.0 | 8.0 | 0.00 | 0.54 | 0.09 | 84 | 1007.1 |
| 20260506144704 | 54 | 313 | 2.0 | 8.0 | 0.00 | 0.54 | 0.09 | 84 | 1007.1 |
| 20260506143704 | 54 | 286 | 3.0 | 8.0 | 0.00 | 0.54 | 0.09 | 85 | 1007.1 |
| 20260506143204 | 54 | 294 | 2.0 | 6.0 | 0.00 | 0.55 | 0.09 | 84 | 1007.1 |
| 20260506142704 | 54 | 257 | 2.0 | 7.0 | 0.00 | 0.55 | 0.09 | 84 | 1007.1 |
| 20260506142204 | 54 | 244 | 2.0 | 7.0 | 0.00 | 0.55 | 0.09 | 85 | 1007.1 |
| 20260506141704 | 54 | 286 | 1.0 | 7.0 | 0.00 | 0.55 | 0.09 | 84 | 1007.1 |
| 20260506141231 | 54 | 326 | 1.0 | 4.0 | 0.00 | 0.56 | 0.09 | 85 | 1007.2 |
| 20260506140704 | 54 | 325 | 1.0 | 5.0 | 0.00 | 0.56 | 0.09 | 85 | 1007.2 |
| 20260506135204 | 54 | 263 | 1.0 | 5.0 | 0.00 | 0.57 | 0.09 | 85 | 1007.3 |
| 20260506134705 | 54 | 314 | 1.0 | 5.0 | 0.00 | 0.57 | 0.09 | 86 | 1007.3 |
| 20260506134205 | 53 | 325 | 1.0 | 4.0 | 0.00 | 0.57 | 0.09 | 86 | 1007.3 |
| 20260506133704 | 53 | 303 | 1.0 | 5.0 | 0.00 | 0.57 | 0.09 | 86 | 1007.3 |
| 20260506132704 | 53 | 277 | 2.0 | 7.0 | 0.00 | 0.57 | 0.09 | 86 | 1007.4 |
| 20260506132204 | 54 | 277 | 2.0 | 7.0 | 0.00 | 0.57 | 0.09 | 86 | 1007.3 |
| 20260506130719 | 54 | 338 | 2.0 | 7.0 | 0.00 | 0.58 | 0.09 | 86 | 1007.2 |
| 20260506130226 | 54 | 284 | 3.0 | 7.0 | 0.00 | 0.59 | 0.09 | 85 | 1007.1 |
| 20260506125704 | 54 | 273 | 2.0 | 7.0 | 0.00 | 0.59 | 0.09 | 86 | 1007.0 |
| 20260506124704 | 54 | 22 | 1.0 | 7.0 | 0.00 | 0.60 | 0.09 | 87 | 1006.9 |
| 20260506124204 | 54 | 271 | 1.0 | 6.0 | 0.00 | 0.61 | 0.09 | 86 | 1006.8 |
| 20260506123704 | 54 | 288 | 1.0 | 6.0 | 0.00 | 0.61 | 0.09 | 86 | 1006.8 |
| 20260506123204 | 54 | 312 | 1.0 | 5.0 | 0.00 | 0.61 | 0.09 | 86 | 1006.8 |
| 20260506122704 | 54 | 342 | 1.0 | 5.0 | 0.00 | 0.62 | 0.09 | 85 | 1006.8 |
| 20260506122204 | 54 | 296 | 1.0 | 4.0 | 0.00 | 0.63 | 0.09 | 86 | 1006.7 |
| 20260506121704 | 54 | 277 | 1.0 | 6.0 | 0.00 | 0.64 | 0.09 | 86 | 1006.7 |
| 20260506121204 | 54 | 315 | 1.0 | 6.0 | 0.00 | 0.65 | 0.09 | 86 | 1006.7 |
| 20260506120704 | 54 | 271 | 2.0 | 6.0 | 0.00 | 0.65 | 0.09 | 86 | 1006.6 |
| 20260506120206 | 54 | 317 | 2.0 | 6.0 | 0.00 | 0.66 | 0.09 | 86 | 1006.6 |
| 20260506115704 | 54 | 304 | 2.0 | 5.0 | 0.00 | 0.67 | 0.09 | 86 | 1006.6 |
| 20260506115204 | 54 | 319 | 2.0 | 7.0 | 0.00 | 0.67 | 0.09 | 86 | 1006.6 |
| 20260506114704 | 54 | 301 | 2.0 | 7.0 | 0.00 | 0.67 | 0.09 | 86 | 1006.6 |
| 20260506114204 | 54 | 311 | 2.0 | 5.0 | 0.00 | 0.67 | 0.09 | 86 | 1006.6 |
| 20260506113704 | 54 | 259 | 1.0 | 4.0 | 0.00 | 0.67 | 0.09 | 87 | 1006.5 |
| 20260506113224 | 54 | 275 | 1.0 | 5.0 | 0.00 | 0.67 | 0.09 | 87 | 1006.5 |
| 20260506112704 | 54 | 274 | 2.0 | 7.0 | 0.00 | 0.67 | 0.09 | 86 | 1006.4 |
| 20260506112205 | 54 | 32 | 2.0 | 7.0 | 0.00 | 0.67 | 0.09 | 86 | 1006.3 |
| 20260506111728 | 54 | 294 | 2.0 | 7.0 | 0.00 | 0.67 | 0.09 | 87 | 1006.3 |
| 20260506111204 | 54 | 261 | 2.0 | 7.0 | 0.00 | 0.67 | 0.09 | 87 | 1006.3 |
| 20260506110705 | 54 | 294 | 1.0 | 6.0 | 0.00 | 0.67 | 0.09 | 88 | 1006.3 |
| 20260506110204 | 54 | 273 | 1.0 | 6.0 | 0.00 | 0.67 | 0.09 | 88 | 1006.3 |
| 20260506105704 | 54 | 288 | 1.0 | 4.0 | 0.00 | 0.67 | 0.09 | 89 | 1006.2 |
| 20260506105204 | 54 | 290 | 1.0 | 3.0 | 0.00 | 0.67 | 0.09 | 89 | 1006.2 |
| 20260506104704 | 54 | 325 | 0.0 | 4.0 | 0.00 | 0.67 | 0.09 | 89 | 1006.2 |
| 20260506103704 | 54 | 306 | 1.0 | 4.0 | 0.00 | 0.67 | 0.09 | 89 | 1006.0 |
| 20260506103204 | 54 | 275 | 1.0 | 4.0 | 0.00 | 0.67 | 0.09 | 89 | 1006.0 |
| 20260506102704 | 54 | 293 | 1.0 | 5.0 | 0.00 | 0.67 | 0.09 | 90 | 1006.0 |
| 20260506102204 | 53 | 312 | 1.0 | 5.0 | 0.00 | 0.67 | 0.09 | 90 | 1006.0 |
| 20260506101704 | 53 | 271 | 1.0 | 5.0 | 0.00 | 0.67 | 0.09 | 90 | 1005.9 |
| 20260506101204 | 53 | 236 | 1.0 | 5.0 | 0.00 | 0.67 | 0.09 | 91 | 1005.9 |
| 20260506100704 | 53 | 281 | 2.0 | 7.0 | 0.00 | 0.67 | 0.09 | 91 | 1005.9 |
| 20260506100223 | 53 | 225 | 2.0 | 7.0 | 0.00 | 0.67 | 0.09 | 91 | 1005.8 |
| 20260506095704 | 53 | 217 | 1.0 | 7.0 | 0.00 | 0.67 | 0.09 | 91 | 1005.8 |
| 20260506095204 | 53 | 249 | 1.0 | 6.0 | 0.00 | 0.67 | 0.09 | 92 | 1005.8 |
| 20260506094704 | 53 | 340 | 1.0 | 6.0 | 0.00 | 0.67 | 0.09 | 91 | 1005.7 |
| 20260506093704 | 53 | 311 | 2.0 | 6.0 | 0.00 | 0.67 | 0.09 | 92 | 1005.7 |
| 20260506093205 | 53 | 300 | 2.0 | 6.0 | 0.00 | 0.67 | 0.09 | 92 | 1005.5 |
| 20260506092704 | 53 | 274 | 2.0 | 5.0 | 0.00 | 0.67 | 0.09 | 92 | 1005.5 |
| 20260506092204 | 53 | 225 | 1.0 | 5.0 | 0.00 | 0.67 | 0.09 | 93 | 1005.5 |
| 20260506091704 | 53 | 304 | 1.0 | 4.0 | 0.00 | 0.67 | 0.09 | 93 | 1005.4 |
| 20260506090704 | 53 | 339 | 1.0 | 3.0 | 0.00 | 0.67 | 0.09 | 94 | 1005.4 |
| 20260506085704 | 52 | 303 | 1.0 | 7.0 | 0.00 | 0.67 | 0.09 | 95 | 1005.3 |
| 20260506085204 | 52 | 290 | 2.0 | 7.0 | 0.00 | 0.67 | 0.09 | 95 | 1005.3 |
| 20260506084704 | 52 | 289 | 3.0 | 7.0 | 0.00 | 0.67 | 0.09 | 95 | 1005.3 |
| 20260506084204 | 52 | 296 | 2.0 | 5.0 | 0.00 | 0.67 | 0.09 | 96 | 1005.2 |
| 20260506083704 | 52 | 234 | 2.0 | 5.0 | 0.00 | 0.67 | 0.09 | 96 | 1005.1 |
| 20260506083204 | 52 | 253 | 2.0 | 7.0 | 0.00 | 0.67 | 0.09 | 95 | 1005.2 |
| 20260506082204 | 52 | 340 | 2.0 | 7.0 | 0.01 | 0.67 | 0.09 | 96 | 1005.0 |
| 20260506081704 | 52 | 270 | 1.0 | 5.0 | 0.01 | 0.67 | 0.09 | 96 | 1005.0 |
| 20260506081204 | 52 | 256 | 1.0 | 5.0 | 0.01 | 0.67 | 0.09 | 96 | 1005.0 |
| 20260506080204 | 52 | 310 | 1.0 | 4.0 | 0.01 | 0.67 | 0.09 | 96 | 1004.9 |
| 20260506073204 | 52 | 264 | 1.0 | 5.0 | 0.01 | 0.66 | 0.09 | 96 | 1005.0 |
| 20260506072704 | 52 | 264 | 1.0 | 4.0 | 0.01 | 0.66 | 0.09 | 96 | 1005.0 |
| 20260506072204 | 52 | 268 | 0.0 | 4.0 | 0.01 | 0.66 | 0.09 | 96 | 1005.0 |
| 20260506071704 | 52 | 252 | 0.0 | 2.0 | 0.02 | 0.66 | 0.09 | 96 | 1004.9 |
| 20260506071204 | 52 | 252 | 0.0 | 2.0 | 0.02 | 0.66 | 0.09 | 96 | 1004.8 |
| 20260506070704 | 52 | 250 | 0.0 | 2.0 | 0.02 | 0.66 | 0.09 | 96 | 1004.8 |
| 20260506070205 | 52 | 250 | 0.0 | 3.0 | 0.03 | 0.66 | 0.09 | 96 | 1004.8 |
| 20260506062204 | 52 | 248 | 1.0 | 4.0 | 0.05 | 0.65 | 0.08 | 96 | 1004.4 |
| 20260506061704 | 52 | 248 | 1.0 | 4.0 | 0.04 | 0.65 | 0.07 | 96 | 1004.5 |
| 20260506061204 | 53 | 248 | 1.0 | 5.0 | 0.03 | 0.64 | 0.06 | 96 | 1004.5 |
| 20260506060704 | 53 | 248 | 2.0 | 5.0 | 0.03 | 0.64 | 0.06 | 95 | 1004.3 |
| 20260506051204 | 53 | 177 | 0.0 | 3.0 | 0.01 | 0.61 | 0.03 | 96 | 1004.2 |
| 20260506050204 | 53 | 232 | 0.0 | 3.0 | 0.02 | 0.61 | 0.03 | 96 | 1004.1 |
| 20260506044704 | 53 | 244 | 0.0 | 2.0 | 0.03 | 0.61 | 0.03 | 95 | 1004.0 |
| 20260506044204 | 53 | 243 | 0.0 | 2.0 | 0.03 | 0.61 | 0.03 | 95 | 1003.9 |
| 20260506043704 | 53 | 243 | 0.0 | 3.0 | 0.03 | 0.61 | 0.03 | 95 | 1004.1 |
| 20260506043204 | 53 | 243 | 0.0 | 3.0 | 0.03 | 0.61 | 0.03 | 95 | 1004.1 |
| 20260506042704 | 53 | 243 | 0.0 | 3.0 | 0.03 | 0.61 | 0.03 | 95 | 1004.2 |
| 20260506042204 | 53 | 231 | 0.0 | 1.0 | 0.02 | 0.60 | 0.02 | 95 | 1004.2 |
| 20260506041704 | 53 | 231 | 0.0 | 0.0 | 0.02 | 0.60 | 0.02 | 95 | 1004.2 |
| 20260506041204 | 53 | 231 | 0.0 | 0.0 | 0.02 | 0.60 | 0.02 | 95 | 1004.2 |
| 20260506040704 | 53 | 231 | 0.0 | 0.0 | 0.01 | 0.58 | 0.01 | 95 | 1004.3 |
| 20260506040205 | 53 | 231 | 0.0 | 2.0 | 0.00 | 0.57 | 0.00 | 95 | 1004.2 |
| 20260506035704 | 53 | 231 | 0.0 | 2.0 | 0.00 | 0.57 | 0.00 | 94 | 1004.3 |
| 20260506034704 | 53 | 229 | 0.0 | 3.0 | 0.00 | 0.57 | 0.00 | 94 | 1004.4 |
| 20260506034205 | 53 | 229 | 0.0 | 2.0 | 0.00 | 0.57 | 0.00 | 94 | 1004.4 |
| 20260506033704 | 53 | 227 | 0.0 | 3.0 | 0.00 | 0.57 | 0.00 | 94 | 1004.5 |
| 20260506033204 | 53 | 225 | 0.0 | 3.0 | 0.00 | 0.57 | 0.00 | 94 | 1004.4 |
| 20260506032704 | 53 | 225 | 0.0 | 3.0 | 0.00 | 0.57 | 0.00 | 94 | 1004.5 |
| 20260506032205 | 53 | 224 | 0.0 | 3.0 | 0.00 | 0.57 | 0.00 | 94 | 1004.5 |
| 20260506031704 | 53 | 240 | 0.0 | 3.0 | 0.00 | 0.57 | 0.00 | 95 | 1004.5 |
| 20260506030704 | 53 | 252 | 0.0 | 2.0 | 0.00 | 0.57 | 0.00 | 95 | 1004.6 |
| 20260506030205 | 53 | 252 | 0.0 | 2.0 | 0.00 | 0.57 | 0.00 | 95 | 1004.5 |
| 20260506025704 | 53 | 236 | 0.0 | 4.0 | 0.00 | 0.57 | 0.00 | 95 | 1004.6 |
| 20260506025204 | 53 | 236 | 0.0 | 4.0 | 0.00 | 0.57 | 0.00 | 95 | 1004.6 |
| 20260506024704 | 53 | 236 | 0.0 | 4.0 | 0.00 | 0.57 | 0.00 | 95 | 1004.6 |
| 20260506024204 | 53 | 231 | 0.0 | 3.0 | 0.00 | 0.57 | 0.00 | 95 | 1004.7 |
| 20260506023704 | 53 | 235 | 0.0 | 4.0 | 0.00 | 0.57 | 0.00 | 95 | 1004.6 |
| 20260506023204 | 53 | 217 | 0.0 | 4.0 | 0.00 | 0.57 | 0.00 | 95 | 1004.6 |
| 20260506022704 | 53 | 217 | 1.0 | 5.0 | 0.00 | 0.57 | 0.00 | 95 | 1004.6 |
| 20260506022204 | 53 | 214 | 2.0 | 6.0 | 0.00 | 0.57 | 0.00 | 95 | 1004.6 |
| 20260506021705 | 54 | 247 | 2.0 | 6.0 | 0.00 | 0.57 | 0.00 | 95 | 1004.6 |
| 20260506021205 | 54 | 252 | 1.0 | 6.0 | 0.00 | 0.57 | 0.00 | 95 | 1004.6 |
| 20260506020704 | 54 | 244 | 1.0 | 5.0 | 0.00 | 0.57 | 0.00 | 95 | 1004.7 |
| 20260506020204 | 54 | 233 | 1.0 | 4.0 | 0.00 | 0.57 | 0.00 | 95 | 1004.5 |
| 20260506015704 | 54 | 235 | 0.0 | 3.0 | 0.00 | 0.57 | 0.00 | 95 | 1004.6 |
| 20260506015204 | 54 | 222 | 0.0 | 3.0 | 0.00 | 0.57 | 0.00 | 95 | 1004.7 |
| 20260506014704 | 54 | 223 | 1.0 | 3.0 | 0.00 | 0.57 | 0.00 | 95 | 1004.6 |
| 20260506014205 | 54 | 294 | 1.0 | 4.0 | 0.00 | 0.57 | 0.00 | 95 | 1004.7 |
| 20260506013705 | 54 | 11 | 1.0 | 5.0 | 0.00 | 0.57 | 0.00 | 95 | 1004.8 |
| 20260506012704 | 54 | 236 | 1.0 | 5.0 | 0.00 | 0.57 | 0.00 | 95 | 1004.9 |
| 20260506012204 | 54 | 242 | 1.0 | 5.0 | 0.00 | 0.57 | 0.00 | 95 | 1004.8 |
| 20260506011704 | 54 | 232 | 1.0 | 4.0 | 0.00 | 0.57 | 0.00 | 95 | 1004.9 |
| 20260506011204 | 54 | 238 | 0.0 | 4.0 | 0.00 | 0.57 | 0.00 | 95 | 1004.9 |
| 20260506010704 | 54 | 242 | 0.0 | 4.0 | 0.00 | 0.57 | 0.00 | 95 | 1004.9 |
| 20260506010204 | 54 | 242 | 0.0 | 5.0 | 0.00 | 0.57 | 0.00 | 95 | 1004.9 |
| 20260506005705 | 54 | 255 | 1.0 | 5.0 | 0.00 | 0.57 | 0.00 | 95 | 1005.0 |
| 20260506005206 | 54 | 255 | 1.0 | 5.0 | 0.00 | 0.57 | 0.00 | 95 | 1004.9 |
| 20260506004704 | 54 | 213 | 1.0 | 6.0 | 0.00 | 0.57 | 0.00 | 95 | 1005.0 |
| 20260506004204 | 54 | 130 | 2.0 | 6.0 | 0.00 | 0.57 | 0.00 | 95 | 1005.1 |
| 20260506003204 | 54 | 228 | 1.0 | 8.0 | 0.00 | 0.57 | 0.00 | 95 | 1005.1 |
| 20260506002704 | 54 | 146 | 1.0 | 8.0 | 0.00 | 0.57 | 0.00 | 95 | 1005.1 |
| 20260506002204 | 54 | 156 | 1.0 | 6.0 | 0.00 | 0.57 | 0.00 | 95 | 1005.1 |
| 20260506001204 | 54 | 38 | 1.0 | 6.0 | 0.00 | 0.57 | 0.00 | 95 | 1005.2 |
| 20260505235704 | 55 | 227 | 1.0 | 5.0 | 0.00 | 0.57 | 0.00 | 95 | 1005.4 |
| 20260505235205 | 55 | 216 | 0.0 | 5.0 | 0.00 | 0.57 | 0.00 | 95 | 1005.4 |
| 20260505234704 | 55 | 201 | 1.0 | 5.0 | 0.00 | 0.57 | 0.00 | 95 | 1005.5 |
| 20260505234204 | 55 | 210 | 1.0 | 5.0 | 0.00 | 0.57 | 0.00 | 96 | 1005.5 |
| 20260505233704 | 55 | 221 | 0.0 | 5.0 | 0.00 | 0.57 | 0.00 | 96 | 1005.6 |
| 20260505233204 | 55 | 212 | 1.0 | 5.0 | 0.00 | 0.57 | 0.00 | 96 | 1005.5 |
| 20260505232705 | 55 | 237 | 1.0 | 5.0 | 0.00 | 0.57 | 0.00 | 96 | 1005.5 |
| 20260505232204 | 55 | 294 | 1.0 | 5.0 | 0.00 | 0.57 | 0.00 | 96 | 1005.5 |
| 20260505231705 | 55 | 152 | 1.0 | 5.0 | 0.00 | 0.57 | 0.00 | 96 | 1005.6 |
| 20260505231204 | 55 | 247 | 0.0 | 3.0 | 0.00 | 0.57 | 0.00 | 96 | 1005.5 |
| 20260505230704 | 55 | 185 | 0.0 | 4.0 | 0.00 | 0.57 | 0.00 | 96 | 1005.5 |
| 20260505225705 | 55 | 297 | 0.0 | 8.0 | 0.00 | 0.57 | 0.00 | 96 | 1005.5 |
| 20260505225205 | 55 | 241 | 0.0 | 8.0 | 0.00 | 0.57 | 0.00 | 96 | 1005.6 |
| 20260505224704 | 55 | 303 | 0.0 | 2.0 | 0.00 | 0.57 | 0.00 | 96 | 1005.6 |
| 20260505224204 | 55 | 179 | 0.0 | 6.0 | 0.00 | 0.57 | 0.00 | 96 | 1005.7 |
| 20260505223204 | 55 | 156 | 0.0 | 6.0 | 0.01 | 0.57 | 0.00 | 96 | 1005.6 |
| 20260505222730 | 55 | 138 | 0.0 | 1.0 | 0.01 | 0.57 | 0.00 | 96 | 1005.6 |
| 20260505222204 | 55 | 157 | 0.0 | 1.0 | 0.01 | 0.57 | 0.00 | 96 | 1005.6 |
| 20260505221704 | 55 | 156 | 0.0 | 1.0 | 0.01 | 0.57 | 0.00 | 96 | 1005.6 |
| 20260505221204 | 55 | 159 | 0.0 | 0.0 | 0.01 | 0.57 | 0.00 | 96 | 1005.6 |
| 20260505220705 | 55 | 160 | 0.0 | 1.0 | 0.01 | 0.57 | 0.00 | 96 | 1005.7 |
| 20260505220204 | 55 | 159 | 0.0 | 1.0 | 0.01 | 0.57 | 0.57 | 96 | 1005.7 |
| 20260505215704 | 55 | 160 | 0.0 | 1.0 | 0.01 | 0.57 | 0.57 | 96 | 1005.8 |
| 20260505215204 | 55 | 355 | 0.0 | 1.0 | 0.01 | 0.57 | 0.57 | 96 | 1005.9 |
| 20260505214205 | 55 | 355 | 0.0 | 1.0 | 0.01 | 0.57 | 0.57 | 96 | 1005.8 |
| 20260505213204 | 55 | 355 | 0.0 | 0.0 | 0.00 | 0.57 | 0.57 | 96 | 1005.9 |
| 20260505212704 | 55 | 355 | 0.0 | 0.0 | 0.00 | 0.57 | 0.57 | 96 | 1005.9 |
| 20260505212224 | 55 | 355 | 0.0 | 0.0 | 0.00 | 0.57 | 0.57 | 96 | 1006.0 |
| 20260505211205 | 55 | 355 | 0.0 | 0.0 | 0.00 | 0.57 | 0.57 | 96 | 1006.0 |
| 20260505210704 | 55 | 355 | 0.0 | 0.0 | 0.00 | 0.57 | 0.57 | 96 | 1006.2 |
| 20260505210204 | 55 | 355 | 0.0 | 0.0 | 0.00 | 0.57 | 0.57 | 96 | 1006.3 |
| 20260505205704 | 55 | 355 | 0.0 | 0.0 | 0.01 | 0.57 | 0.57 | 96 | 1006.2 |
| 20260505204704 | 55 | 355 | 0.0 | 1.0 | 0.03 | 0.57 | 0.57 | 96 | 1006.4 |
| 20260505203705 | 55 | 355 | 0.0 | 0.0 | 0.06 | 0.57 | 0.57 | 96 | 1006.3 |
| 20260505203204 | 56 | 355 | 0.0 | 0.0 | 0.08 | 0.57 | 0.57 | 96 | 1006.4 |
| 20260505202704 | 56 | 355 | 0.0 | 0.0 | 0.13 | 0.57 | 0.57 | 96 | 1006.4 |
| 20260505202204 | 56 | 355 | 0.0 | 0.0 | 0.17 | 0.57 | 0.57 | 96 | 1006.3 |
| 20260505201704 | 56 | 355 | 0.0 | 0.0 | 0.20 | 0.57 | 0.57 | 96 | 1006.3 |
| 20260505201204 | 56 | 355 | 0.0 | 0.0 | 0.21 | 0.57 | 0.57 | 96 | 1006.3 |
| 20260505200705 | 56 | 355 | 0.0 | 0.0 | 0.23 | 0.57 | 0.57 | 96 | 1006.3 |
| 20260505200204 | 56 | 355 | 0.0 | 2.0 | 0.24 | 0.57 | 0.57 | 96 | 1006.3 |
| 20260505195705 | 56 | 348 | 0.0 | 2.0 | 0.24 | 0.56 | 0.56 | 96 | 1006.0 |
| 20260505195205 | 56 | 348 | 0.0 | 3.0 | 0.24 | 0.54 | 0.54 | 95 | 1006.0 |
| 20260505194704 | 56 | 337 | 0.0 | 3.0 | 0.25 | 0.54 | 0.54 | 95 | 1006.0 |
| 20260505193704 | 56 | 335 | 0.0 | 2.0 | 0.24 | 0.50 | 0.50 | 95 | 1006.2 |
| 20260505193204 | 56 | 319 | 0.0 | 2.0 | 0.24 | 0.48 | 0.48 | 95 | 1005.9 |
| 20260505192704 | 56 | 31 | 0.0 | 0.0 | 0.18 | 0.42 | 0.42 | 96 | 1006.0 |
| 20260505191704 | 56 | 33 | 0.0 | 0.0 | 0.15 | 0.37 | 0.37 | 95 | 1006.0 |
| 20260505191204 | 56 | 33 | 0.0 | 0.0 | 0.13 | 0.35 | 0.35 | 95 | 1005.9 |
| 20260505190205 | 56 | 33 | 0.0 | 0.0 | 0.13 | 0.32 | 0.32 | 95 | 1005.9 |